H1 CPF 2 NER 2024 7 22 9 204 01 glonass116 H2 0907001 9116 36111 2024 7 22 0 0 0 2024 7 25 23 45 0 900 1 1 0 0 0 1 H9 10 0 60513 0.00000 0 -4913725.024 -9756285.769 23048378.775 10 0 60513 900.00000 0 -2401500.269 -11065697.831 22855996.244 10 0 60513 1800.00000 0 -35084.355 -12528161.950 22219707.197 10 0 60513 2700.00000 0 2132508.372 -14098905.581 21151917.046 10 0 60513 3600.00000 0 4057693.684 -15725171.164 19673402.371 10 0 60513 4500.00000 0 5707883.542 -17348356.773 17812905.614 10 0 60513 5400.00000 0 7062587.054 -18906420.262 15606576.151 10 0 60513 6300.00000 0 8114001.883 -20336446.628 13097268.396 10 0 60513 7200.00000 0 8867072.911 -21577271.330 10333710.327 10 0 60513 8100.00000 0 9339017.113 -22572049.800 7369558.314 10 0 60513 9000.00000 0 9558335.983 -23270665.520 4262356.349 10 0 60513 9900.00000 0 9563358.171 -23631875.562 1072419.816 10 0 60513 10800.00000 0 9400374.787 -23625103.396 -2138334.584 10 0 60513 11700.00000 0 9121446.788 -23231803.447 -5307589.983 10 0 60513 12600.00000 0 8781977.707 -22446339.746 -8373838.063 10 0 60513 13500.00000 0 8438154.766 -21276341.419 -11277571.769 10 0 60513 14400.00000 0 8144366.876 -19742519.637 -13962438.768 10 0 60513 15300.00000 0 7950708.899 -17877953.203 -16376333.224 10 0 60513 16200.00000 0 7900677.721 -15726872.049 -18472404.783 10 0 60513 17100.00000 0 8029157.684 -13342988.883 -20209965.442 10 0 60513 18000.00000 0 8360780.577 -10787448.118 -21555277.069 10 0 60513 18900.00000 0 8908729.620 -8126476.722 -22482204.649 10 0 60513 19800.00000 0 9674038.275 -5428834.049 -22972722.998 10 0 60513 20700.00000 0 10645414.036 -2763165.911 -23017267.403 10 0 60513 21600.00000 0 11799595.430 -195371.983 -22614921.579 10 0 60513 22500.00000 0 13102228.247 2213904.961 -21773439.225 10 0 60513 23400.00000 0 14509225.236 4411564.487 -20509098.530 10 0 60513 24300.00000 0 15968553.360 6354014.427 -18846391.977 10 0 60513 25200.00000 0 17422374.567 8008736.288 -16817556.833 10 0 60513 26100.00000 0 18809451.058 9355385.597 -14461954.748 10 0 60513 27000.00000 0 20067714.605 10386382.000 -11825311.813 10 0 60513 27900.00000 0 21136892.238 11106965.134 -8958833.226 10 0 60513 28800.00000 0 21961077.790 11534714.651 -5918209.406 10 0 60513 29700.00000 0 22491140.754 11698555.352 -2762532.722 10 0 60513 30600.00000 0 22686870.389 11637290.156 446853.997 10 0 60513 31500.00000 0 22518763.964 11397723.649 3647554.357 10 0 60513 32400.00000 0 21969382.931 11032456.419 6777336.816 10 0 60513 33300.00000 0 21034218.982 10597444.401 9775350.236 10 0 60513 34200.00000 0 19722032.758 10149427.427 12583312.133 10 0 60513 35100.00000 0 18054650.248 9743336.682 15146645.837 10 0 60513 36000.00000 0 16066224.903 9429791.537 17415543.988 10 0 60513 36900.00000 0 13801996.044 9252792.264 19345937.330 10 0 60513 37800.00000 0 11316595.290 9247706.576 20900350.004 10 0 60513 38700.00000 0 8671971.583 9439635.358 22048624.923 10 0 60513 39600.00000 0 5935021.226 9842226.654 22768505.559 10 0 60513 40500.00000 0 3175021.410 10456987.989 23046063.406 10 0 60513 41400.00000 0 460973.596 11273126.012 22875963.428 10 0 60513 42300.00000 0 -2141033.307 12267920.262 22261562.903 10 0 60513 43200.00000 0 -4570331.206 13407615.440 21214842.180 10 0 60513 44100.00000 0 -6773949.258 14648794.918 19756169.022 10 0 60513 45000.00000 0 -8708564.961 15940178.026 17913901.172 10 0 60513 45900.00000 0 -10342049.991 17224765.970 15723834.846 10 0 60513 46800.00000 0 -11654547.818 18442246.586 13228509.647 10 0 60513 47700.00000 0 -12639039.466 19531557.174 10476383.144 10 0 60513 48600.00000 0 -13301375.257 20433497.960 7520890.895 10 0 60513 49500.00000 0 -13659772.521 21093286.412 4419409.910 10 0 60513 50400.00000 0 -13743801.620 21462944.977 1232145.600 10 0 60513 51300.00000 0 -13592904.024 21503421.634 -1979036.228 10 0 60513 52200.00000 0 -13254505.786 21186353.777 -5151809.583 10 0 60513 53100.00000 0 -12781806.719 20495400.821 -8224597.245 10 0 60513 54000.00000 0 -12231339.156 19427089.001 -11137764.841 10 0 60513 54900.00000 0 -11660399.725 17991132.244 -13834776.801 10 0 60513 55800.00000 0 -11124462.909 16210215.004 -16263291.676 10 0 60513 56700.00000 0 -10674685.619 14119245.375 -18376175.708 10 0 60513 57600.00000 0 -10355608.108 11764108.844 -20132415.194 10 0 60513 58500.00000 0 -10203148.251 9199973.928 -21497910.269 10 0 60513 59400.00000 0 -10242973.706 6489219.404 -22446135.110 10 0 60513 60300.00000 0 -10489320.616 3699068.479 -22958652.175 10 0 60513 61200.00000 0 -10944308.799 899027.302 -23025470.745 10 0 60513 62100.00000 0 -11597782.636 -1841766.713 -22645243.036 10 0 60513 63000.00000 0 -12427684.914 -4457177.610 -21825294.031 10 0 60513 63900.00000 0 -13400948.637 -6886576.215 -20581484.209 10 0 60513 64800.00000 0 -14474870.112 -9077114.817 -18937907.411 10 0 60513 65700.00000 0 -15598906.424 -10985677.431 -16926429.039 10 0 60513 66600.00000 0 -16716822.444 -12580425.100 -14586072.918 10 0 60513 67500.00000 0 -17769097.592 -13841872.456 -11962267.985 10 0 60513 68400.00000 0 -18695491.358 -14763451.196 -9105968.842 10 0 60513 69300.00000 0 -19437659.521 -15351537.463 -6072666.880 10 0 60513 70200.00000 0 -19941710.492 -15624942.683 -2921311.014 10 0 60513 71100.00000 0 -20160593.409 -15613889.981 286840.892 10 0 60513 72000.00000 0 -20056216.438 -15358520.087 3489417.152 10 0 60513 72900.00000 0 -19601204.950 -14906990.627 6624150.123 10 0 60513 73800.00000 0 -18780224.439 -14313249.986 9630092.421 10 0 60513 74700.00000 0 -17590811.376 -13634580.714 12448807.044 10 0 60513 75600.00000 0 -16043676.122 -12929017.228 15025507.573 10 0 60513 76500.00000 0 -14162464.344 -12252747.682 17310125.809 10 0 60513 77400.00000 0 -11982986.277 -11657610.432 19258285.742 10 0 60513 78300.00000 0 -9551945.605 -11188791.215 20832164.912 10 0 60513 79200.00000 0 -6925220.656 -10882818.402 22001226.642 10 0 60513 80100.00000 0 -4165769.284 -10765940.906 22742809.318 10 0 60513 81000.00000 0 -1341244.376 -10852956.882 23042561.826 10 0 60513 81900.00000 0 1478581.310 -11146542.311 22894717.290 10 0 60513 82800.00000 0 4224474.408 -11637107.426 22302200.346 10 0 60513 83700.00000 0 6830374.581 -12303186.747 21276566.340 10 0 60513 84600.00000 0 9235893.977 -13112346.140 19837773.889 10 0 60513 85500.00000 0 11388579.629 -14022568.679 18013795.361 10 0 60514 0.00000 0 13245845.686 -14984060.936 15840072.994 10 0 60514 900.00000 0 14776497.211 -15941404.334 13358829.775 10 0 60514 1800.00000 0 15961780.835 -16835959.860 10618251.256 10 0 60514 2700.00000 0 16795923.012 -17608426.712 7671550.012 10 0 60514 3600.00000 0 17286132.048 -18201445.918 4575933.544 10 0 60514 4500.00000 0 17452066.075 -18562139.690 1391494.461 10 0 60514 5400.00000 0 17324790.234 -18644479.267 -1819955.378 10 0 60514 6300.00000 0 16945267.870 -18411381.184 -4996084.052 10 0 60514 7200.00000 0 16362450.084 -17836443.225 -8075248.670 10 0 60514 8100.00000 0 15631044.774 -16905246.405 -10997690.738 10 0 60514 9000.00000 0 14809059.678 -15616167.516 -13706694.543 10 0 60514 9900.00000 0 13955223.301 -13980667.306 -16149685.980 10 0 60514 10800.00000 0 13126392.572 -12023041.290 -18279250.622 10 0 60514 11700.00000 0 12375056.469 -9779642.626 -20054051.530 10 0 60514 12600.00000 0 11747040.636 -7297608.495 -21439629.266 10 0 60514 13500.00000 0 11279509.447 -4633142.027 -22409069.026 10 0 60514 14400.00000 0 10999349.408 -1849420.192 -22943522.345 10 0 60514 15300.00000 0 10922001.755 985786.422 -23032573.531 10 0 60514 16200.00000 0 11050793.321 3802684.151 -22674443.940 10 0 60514 17100.00000 0 11376793.944 6532111.444 -21876030.093 10 0 60514 18000.00000 0 11879206.664 9108169.397 -20652774.657 10 0 60514 18900.00000 0 12526274.763 11470719.264 -19028372.366 10 0 60514 19800.00000 0 13276667.940 13567643.919 -17034315.954 10 0 60514 20700.00000 0 14081289.820 15356779.762 -14709290.256 10 0 60514 21600.00000 0 14885431.039 16807439.135 -12098425.520 10 0 60514 22500.00000 0 15631177.453 17901460.172 -9252423.836 10 0 60514 23400.00000 0 16259971.876 18633740.614 -6226575.259 10 0 60514 24300.00000 0 16715220.994 19012233.719 -3079682.588 10 0 60514 25200.00000 0 16944836.845 19057407.005 127084.240 10 0 60514 26100.00000 0 16903604.767 18801187.209 3331381.437 10 0 60514 27000.00000 0 16555276.801 18285436.666 6470908.589 10 0 60514 27900.00000 0 15874301.124 17560026.160 9484625.436 10 0 60514 28800.00000 0 14847113.380 16680586.423 12313943.777 10 0 60514 29700.00000 0 13472934.424 15706034.040 14903870.647 10 0 60514 30600.00000 0 11764039.826 14695976.945 17204080.041 10 0 60514 31500.00000 0 9745488.970 13708109.614 19169891.999 10 0 60514 32400.00000 0 7454324.288 12795708.222 20763139.991 10 0 60514 33300.00000 0 4938273.482 12005331.495 21952909.966 10 0 60514 34200.00000 0 2254008.395 11374824.050 22716137.059 10 0 60514 35100.00000 0 -534967.430 10931705.932 23038048.948 10 0 60514 36000.00000 0 -3360715.115 10692015.631 22912447.818 10 0 60514 36900.00000 0 -6153441.610 10659654.640 22341826.024 10 0 60514 37800.00000 0 -8844159.121 10826260.501 21337313.671 10 0 60514 38700.00000 0 -11367313.071 11171613.056 19918459.404 10 0 60514 39600.00000 0 -13663270.260 11664556.354 18112848.809 10 0 60514 40500.00000 0 -15680564.739 12264397.031 15955567.789 10 0 60514 41400.00000 0 -17377808.987 12922720.050 13488521.130 10 0 60514 42300.00000 0 -18725191.796 13585545.153 10759619.297 10 0 60514 43200.00000 0 -19705501.458 14195733.067 7821848.949 10 0 60514 44100.00000 0 -20314632.587 14695539.917 4732245.014 10 0 60514 45000.00000 0 -20561556.373 15029211.950 1550784.184 10 0 60514 45900.00000 0 -20467756.517 15145510.912 -1660778.733 10 0 60514 46800.00000 0 -20066155.445 15000063.201 -4840108.945 10 0 60514 47700.00000 0 -19399576.680 14557433.268 -7925500.865 10 0 60514 48600.00000 0 -18518808.767 13792833.309 -10857074.745 10 0 60514 49500.00000 0 -17480352.692 12693396.492 -13577937.420 10 0 60514 50400.00000 0 -16343947.966 11258959.369 -16035284.599 10 0 60514 51300.00000 0 -15169981.640 9502319.620 -18181423.389 10 0 60514 52200.00000 0 -14016889.241 7448957.239 -19974695.490 10 0 60514 53100.00000 0 -12938656.752 5136229.671 -21380283.407 10 0 60514 54000.00000 0 -11982528.343 2612073.273 -22370884.500 10 0 60514 54900.00000 0 -11187015.769 -66736.052 -22927240.148 10 0 60514 55800.00000 0 -10580292.664 -2836691.903 -23038510.095 10 0 60514 56700.00000 0 -10179040.797 -5629949.659 -22702484.890 10 0 60514 57600.00000 0 -9987796.490 -8376903.796 -21925632.302 10 0 60514 58500.00000 0 -9998824.496 -11008844.220 -20722976.568 10 0 60514 59400.00000 0 -10192524.659 -13460582.201 -19117812.393 10 0 60514 60300.00000 0 -10538354.340 -15672937.566 -17141258.651 10 0 60514 61200.00000 0 -10996227.970 -17594984.209 -14831659.759 10 0 60514 62100.00000 0 -11518334.928 -19185960.861 -12233845.661 10 0 60514 63000.00000 0 -12051299.193 -20416767.707 -9398264.179 10 0 60514 63900.00000 0 -12538589.534 -21270986.561 -6380002.168 10 0 60514 64800.00000 0 -12923078.187 -21745382.150 -3237714.350 10 0 60514 65700.00000 0 -13149639.351 -21849863.796 -32480.673 10 0 60514 66600.00000 0 -13167676.921 -21606909.503 3173385.154 10 0 60514 67500.00000 0 -12933473.623 -21050477.211 6317552.259 10 0 60514 68400.00000 0 -12412261.200 -20224449.704 9338889.962 10 0 60514 69300.00000 0 -11579923.020 -19180679.430 12178661.452 10 0 60514 70200.00000 0 -10424256.086 -17976716.413 14781669.890 10 0 60514 71100.00000 0 -8945738.136 -16673315.722 17097334.146 10 0 60514 72000.00000 0 -7157766.507 -15331830.169 19080672.923 10 0 60514 72900.00000 0 -5086357.783 -14011598.428 20693178.084 10 0 60514 73800.00000 0 -2769319.958 -12767438.682 21903560.421 10 0 60514 74700.00000 0 -254930.994 -11647353.115 22688353.746 10 0 60514 75600.00000 0 2399821.732 -10690539.369 23032366.107 10 0 60514 76500.00000 0 5131368.425 -9925791.867 22928969.964 10 0 60514 77400.00000 0 7871962.361 -9370359.371 22380226.234 10 0 60514 78300.00000 0 10552264.547 -9029305.844 21396840.248 10 0 60514 79200.00000 0 13104000.849 -8895400.510 19997950.778 10 0 60514 80100.00000 0 15462581.834 -8949540.865 18210756.356 10 0 60514 81000.00000 0 17569577.258 -9161690.051 16069986.103 10 0 60514 81900.00000 0 19374943.022 -9492288.487 13617225.156 10 0 60514 82800.00000 0 20838908.676 -9894079.799 10900107.590 10 0 60514 83700.00000 0 21933447.594 -10314273.660 7971392.227 10 0 60514 84600.00000 0 22643269.281 -10696954.011 4887939.082 10 0 60514 85500.00000 0 22966293.113 -10985630.706 1709606.197 10 0 60515 0.00000 0 22913584.492 -11125826.557 -1501911.430 10 0 60515 900.00000 0 22508756.753 -11067590.210 -4684279.974 10 0 60515 1800.00000 0 21786864.766 -10767828.188 -7775734.233 10 0 60515 2700.00000 0 20792837.181 -10192357.366 -10716276.552 10 0 60515 3600.00000 0 19579513.654 -9317590.465 -13448839.580 10 0 60515 4500.00000 0 18205369.891 -8131782.855 -15920391.927 10 0 60515 5400.00000 0 16732026.233 -6635787.277 -18082965.111 10 0 60515 6300.00000 0 15221644.396 -4843283.701 -19894582.089 10 0 60515 7200.00000 0 13734321.452 -2780473.489 -21320069.652 10 0 60515 8100.00000 0 12325590.050 -485249.356 -22331739.336 10 0 60515 9000.00000 0 11044129.203 1994125.607 -22909924.041 10 0 60515 9900.00000 0 9929781.079 4600776.144 -23043360.240 10 0 60515 10800.00000 0 9011956.344 7271338.480 -22729408.582 10 0 60515 11700.00000 0 8308494.314 9938362.373 -21974108.584 10 0 60515 12600.00000 0 7825025.302 12532892.870 -20792066.154 10 0 60515 13500.00000 0 7554861.485 14987125.443 -19206175.673 10 0 60515 14400.00000 0 7479420.624 17237024.928 -17247181.452 10 0 60515 15300.00000 0 7569164.659 19224799.790 -14953086.396 10 0 60515 16200.00000 0 7785013.484 20901129.046 -12368418.650 10 0 60515 17100.00000 0 8080174.201 22227049.112 -9543369.858 10 0 60515 18000.00000 0 8402308.402 23175421.808 -6532821.384 10 0 60515 18900.00000 0 8695945.571 23731922.108 -3395277.216 10 0 60515 19800.00000 0 8905040.034 23895504.283 -191724.348 10 0 60515 20700.00000 0 8975562.560 23678326.979 3015556.788 10 0 60515 21600.00000 0 8858016.048 23105140.658 6164208.201 10 0 60515 22500.00000 0 8509767.845 22212163.525 9193012.185 10 0 60515 23400.00000 0 7897098.900 21045493.794 12043086.679 10 0 60515 24300.00000 0 6996882.034 19659125.706 14659034.222 10 0 60515 25200.00000 0 5797817.319 18112653.452 16990021.659 10 0 60515 26100.00000 0 4301171.413 16468760.120 18990769.239 10 0 60515 27000.00000 0 2520988.743 14790597.731 20622429.848 10 0 60515 27900.00000 0 483764.688 13139168.579 21853341.450 10 0 60515 28800.00000 0 -1772406.374 11570817.807 22659638.496 10 0 60515 29700.00000 0 -4199173.326 10134942.061 23025710.948 10 0 60515 30600.00000 0 -6739705.612 8872009.626 22944502.609 10 0 60515 31500.00000 0 -9330832.171 7811974.228 22417643.469 10 0 60515 32400.00000 0 -11905453.639 6973147.863 21455414.019 10 0 60515 33300.00000 0 -14395128.158 6361578.781 20076542.470 10 0 60515 34200.00000 0 -16732723.861 5970959.519 18307839.005 10 0 60515 35100.00000 0 -18855028.362 5783067.687 16183674.094 10 0 60515 36000.00000 0 -20705207.292 5768719.950 13745310.853 10 0 60515 36900.00000 0 -22235010.062 5889198.165 11040104.195 10 0 60515 37800.00000 0 -23406631.502 6098086.854 8120582.044 10 0 60515 38700.00000 0 -24194152.206 6343443.900 5043426.255 10 0 60515 39600.00000 0 -24584497.962 6570212.377 1868372.907 10 0 60515 40500.00000 0 -24577878.632 6722771.162 -1342946.705 10 0 60515 41400.00000 0 -24187688.620 6747516.183 -4528201.827 10 0 60515 42300.00000 0 -23439873.583 6595362.768 -7625571.382 10 0 60515 43200.00000 0 -22371790.382 6224062.888 -10574942.855 10 0 60515 44100.00000 0 -21030608.456 5600238.909 -13319077.574 10 0 60515 45000.00000 0 -19471319.959 4701047.343 -15804719.699 10 0 60515 45900.00000 0 -17754442.245 3515401.736 -17983627.508 10 0 60515 46800.00000 0 -15943508.982 2044702.245 -19813507.196 10 0 60515 47700.00000 0 -14102454.821 303040.182 -21258831.386 10 0 60515 48600.00000 0 -12293002.773 -1683132.320 -22291526.868 10 0 60515 49500.00000 0 -10572163.074 -3875855.076 -22891518.644 10 0 60515 50400.00000 0 -8989947.577 -6227000.867 -23047120.015 10 0 60515 51300.00000 0 -7587394.528 -8680050.231 -22755261.370 10 0 60515 52200.00000 0 -6394985.610 -11172227.493 -22021553.203 10 0 60515 53100.00000 0 -5431520.828 -13636910.384 -20860181.951 10 0 60515 54000.00000 0 -4703497.665 -16006214.021 -19293640.221 10 0 60515 54900.00000 0 -4205019.987 -18213642.614 -17352296.076 10 0 60515 55800.00000 0 -3918240.030 -20196698.981 -15073809.037 10 0 60515 56700.00000 0 -3814314.461 -21899343.476 -12502403.465 10 0 60515 57600.00000 0 -3854833.856 -23274199.791 -9688012.798 10 0 60515 58500.00000 0 -3993664.887 -24284415.370 -6685310.863 10 0 60515 59400.00000 0 -4179126.942 -24905098.364 -3552648.887 10 0 60515 60300.00000 0 -4356410.556 -25124270.717 -350918.912 10 0 60515 61200.00000 0 -4470134.586 -24943297.159 2857633.898 10 0 60515 62100.00000 0 -4466933.009 -24376772.069 6010626.442 10 0 60515 63000.00000 0 -4297960.825 -23451869.001 9046756.038 10 0 60515 63900.00000 0 -3921211.930 -22207180.482 11906997.465 10 0 60515 64800.00000 0 -3303549.816 -20691097.243 14535754.776 10 0 60515 65700.00000 0 -2422364.169 -18959795.452 16881944.911 10 0 60515 66600.00000 0 -1266782.397 -17074916.995 18899991.745 10 0 60515 67500.00000 0 161615.943 -15101040.556 20550711.139 10 0 60515 68400.00000 0 1848612.824 -13103049.807 21802070.007 10 0 60515 69300.00000 0 3767702.202 -11143508.975 22629804.988 10 0 60515 70200.00000 0 5880963.396 -9280155.417 23017889.253 10 0 60515 71100.00000 0 8140421.603 -7563613.525 22958838.937 10 0 60515 72000.00000 0 10489839.501 -6035424.743 22453853.814 10 0 60515 72900.00000 0 12866865.845 -4726475.024 21512789.941 10 0 60515 73800.00000 0 15205452.258 -3655884.199 20153965.086 10 0 60515 74700.00000 0 17438438.082 -2830402.444 18403800.900 10 0 60515 75600.00000 0 19500196.245 -2244337.705 16296308.715 10 0 60515 76500.00000 0 21329230.425 -1880015.823 13872428.808 10 0 60515 77400.00000 0 22870615.662 -1708752.773 11179235.754 10 0 60515 78300.00000 0 24078181.016 -1692297.071 8269025.028 10 0 60515 79200.00000 0 24916343.474 -1784680.635 5198298.393 10 0 60515 80100.00000 0 25361516.716 -1934399.268 2026667.654 10 0 60515 81000.00000 0 25403036.101 -2086830.090 -1184301.947 10 0 60515 81900.00000 0 25043561.393 -2186783.210 -4372286.204 10 0 60515 82800.00000 0 24298940.571 -2181079.309 -7475410.932 10 0 60515 83700.00000 0 23197540.673 -2021043.734 -10433451.867 10 0 60515 84600.00000 0 21779073.852 -1664811.211 -13189002.095 10 0 60515 85500.00000 0 20092967.988 -1079343.325 -15688584.284 10 0 60516 0.00000 0 18196350.249 -242073.104 -17883686.091 10 0 60516 900.00000 0 16151726.879 857893.859 -19731699.952 10 0 60516 1800.00000 0 14024458.584 2219072.015 -21196746.506 10 0 60516 2700.00000 0 11880133.266 3827414.482 -22250369.953 10 0 60516 3600.00000 0 9781947.770 5656665.501 -22872089.290 10 0 60516 4500.00000 0 7788206.339 7669233.689 -23049796.231 10 0 60516 5400.00000 0 5950039.541 9817550.999 -22779992.137 10 0 60516 6300.00000 0 4309438.076 12045862.048 -22067859.314 10 0 60516 7200.00000 0 2897682.721 14292370.531 -20927165.132 10 0 60516 8100.00000 0 1734235.221 16491654.390 -19380000.379 10 0 60516 9000.00000 0 826135.722 18577250.015 -17456356.355 10 0 60516 9900.00000 0 167931.355 20484298.340 -15193548.219 10 0 60516 10800.00000 0 -257861.756 22152142.781 -12635495.120 10 0 60516 11700.00000 0 -479783.035 23526770.565 -9831870.420 10 0 60516 12600.00000 0 -535980.278 24562995.174 -6837138.141 10 0 60516 13500.00000 0 -472352.392 25226288.155 -3709494.123 10 0 60516 14400.00000 0 -340361.259 25494183.071 -509732.531 10 0 60516 15300.00000 0 -194606.023 25357192.215 2699939.893 10 0 60516 16200.00000 0 -90263.366 24819197.175 5857118.235 10 0 60516 17100.00000 0 -80503.119 23897296.607 8900418.187 10 0 60516 18000.00000 0 -213989.674 22621117.508 11770674.718 10 0 60516 18900.00000 0 -532575.981 21031619.002 14412096.640 10 0 60516 19800.00000 0 -1069288.674 19179439.086 16773354.114 10 0 60516 20700.00000 0 -1846690.450 17122853.995 18808577.570 10 0 60516 21600.00000 0 -2875689.668 14925436.032 20478248.551 10 0 60516 22500.00000 0 -4154848.170 12653508.117 21749965.353 10 0 60516 23400.00000 0 -5670217.194 10373501.616 22599068.909 10 0 60516 24300.00000 0 -7395709.002 8149327.641 23009117.307 10 0 60516 25200.00000 0 -9293989.330 6039871.140 22972200.278 10 0 60516 26100.00000 0 -11317853.988 4096711.627 22489088.119 10 0 60516 27000.00000 0 -13412032.695 2362164.651 21569212.613 10 0 60516 27900.00000 0 -15515345.468 867724.515 20230480.637 10 0 60516 28800.00000 0 -17563122.106 -367028.094 18498924.233 10 0 60516 29700.00000 0 -19489784.354 -1335009.393 16408193.910 10 0 60516 30600.00000 0 -21231483.442 -2041683.802 13998904.876 10 0 60516 31500.00000 0 -22728683.219 -2504582.523 11317848.664 10 0 60516 32400.00000 0 -23928581.283 -2752310.979 8417085.225 10 0 60516 33300.00000 0 -24787267.061 -2823088.022 5352932.890 10 0 60516 34200.00000 0 -25271526.667 -2762879.494 2184875.698 10 0 60516 35100.00000 0 -25360219.044 -2623205.706 -1025590.717 10 0 60516 36000.00000 0 -25045165.718 -2458716.112 -4216152.240 10 0 60516 36900.00000 0 -24331516.897 -2324634.250 -7324885.063 10 0 60516 37800.00000 0 -23237578.494 -2274181.437 -10291456.543 10 0 60516 38700.00000 0 -21794107.269 -2356088.535 -13058294.725 10 0 60516 39600.00000 0 -20043103.489 -2612301.351 -15571703.769 10 0 60516 40500.00000 0 -18036151.487 -3075977.013 -17782903.732 10 0 60516 41400.00000 0 -15832377.238 -3769856.358 -19648974.769 10 0 60516 42300.00000 0 -13496107.958 -4705081.580 -21133687.721 10 0 60516 43200.00000 0 -11094330.918 -5880509.676 -22208205.405 10 0 60516 44100.00000 0 -8694056.847 -7282551.530 -22851641.393 10 0 60516 45000.00000 0 -6359697.100 -8885544.532 -23051465.786 10 0 60516 45900.00000 0 -4150563.065 -10652644.384 -22803750.291 10 0 60516 46800.00000 0 -2118591.057 -12537200.135 -22113247.875 10 0 60516 47700.00000 0 -306386.686 -14484556.265 -20993305.229 10 0 60516 48600.00000 0 1254330.689 -16434207.723 -19465609.335 10 0 60516 49500.00000 0 2543819.313 -18322218.928 -17559772.455 10 0 60516 50400.00000 0 3554897.365 -20083806.376 -15312762.912 10 0 60516 51300.00000 0 4292992.661 -21655977.360 -12768192.036 10 0 60516 52200.00000 0 4775658.374 -22980114.506 -9975470.463 10 0 60516 53100.00000 0 5031575.844 -24004397.731 -6988849.764 10 0 60516 54000.00000 0 5099087.245 -24685961.642 -3866367.814 10 0 60516 54900.00000 0 5024320.790 -24992697.311 -668718.416 10 0 60516 55800.00000 0 4858988.535 -24904622.026 2541932.467 10 0 60516 56700.00000 0 4657950.859 -24414758.831 5703160.334 10 0 60516 57600.00000 0 4476651.645 -23529488.310 8753501.345 10 0 60516 58500.00000 0 4368533.777 -22268357.364 11633652.597 10 0 60516 59400.00000 0 4382545.326 -20663352.793 14287629.465 10 0 60516 60300.00000 0 4560842.896 -18757670.046 16663856.958 10 0 60516 61200.00000 0 4936790.086 -16604028.832 18716173.498 10 0 60516 62100.00000 0 5533336.371 -14262606.237 20404727.534 10 0 60516 63000.00000 0 6361845.439 -11798673.893 21696749.721 10 0 60516 63900.00000 0 7421422.946 -9280037.937 22567186.011 10 0 60516 64800.00000 0 8698772.480 -6774388.431 22999179.871 10 0 60516 65700.00000 0 10168586.319 -4346668.331 22984394.836 10 0 60516 66600.00000 0 11794455.069 -2056571.053 22523171.696 10 0 60516 67500.00000 0 13530258.605 43730.060 21624517.717 10 0 60516 68400.00000 0 15321980.590 1911526.911 20305928.446 10 0 60516 69300.00000 0 17109871.157 3515116.663 18593045.697 10 0 60516 70200.00000 0 18830867.770 4834873.849 16519158.365 10 0 60516 71100.00000 0 20421173.421 5863811.285 14124555.598 10 0 60516 72000.00000 0 21818884.606 6607607.875 11455744.696 10 0 60516 72900.00000 0 22966559.326 7084103.587 8564548.668 10 0 60516 73800.00000 0 23813617.686 7322284.193 5507100.742 10 0 60516 74700.00000 0 24318474.489 7360799.678 2342755.266 10 0 60516 75600.00000 0 24450314.367 7246079.779 -867063.888 10 0 60516 76500.00000 0 24190434.826 7030127.007 -4060055.050 10 0 60516 77400.00000 0 23533100.657 6768081.043 -7174247.271 10 0 60516 78300.00000 0 22485873.620 6515657.947 -10149202.070 10 0 60516 79200.00000 0 21069403.248 6326572.829 -12927184.987 10 0 60516 80100.00000 0 19316687.201 6250055.219 -15454284.131 10 0 60516 81000.00000 0 17271831.727 6328562.379 -17681454.148 10 0 60516 81900.00000 0 14988363.551 6595787.378 -19565465.542 10 0 60516 82800.00000 0 12527163.188 7075046.294 -21069741.258 10 0 60516 83700.00000 0 9954105.243 7778112.971 -22165064.689 10 0 60516 84600.00000 0 7337503.272 8704550.978 -22830145.795 10 0 60516 85500.00000 0 4745464.825 9841571.682 -23052034.639 99